Weather History for LFLB - March, 2013

Change the Weather History Date:

Saturday, March 2, 2013

  Actual Average Record
Temperature  
Mean Temperature 37 °F -  
Max Temperature 41 °F 54 °F 66 °F (2012)
Min Temperature 33 °F 35 °F 14 °F (2005)
Degree Days  
Heating Degree Days 28    
Moisture  
Dew Point 29 °F    
Average Humidity 73    
Maximum Humidity 87    
Minimum Humidity 61    
Precipitation  
Precipitation 0.00 in - - ()
Sea Level Pressure  
Sea Level Pressure 30.12 in    
Wind  
Wind Speed 7 mph ()    
Max Wind Speed 10 mph    
Max Gust Speed -    
Visibility 4.6 miles    
Events      
Averages and records for this station are not official NWS values.
T = Trace of Precipitation, MM = Missing Value Source: Averaged Metar Reports

Daily Weather History Graph

Daily Weather History Graph

Search for Another Location

Airport or City:

Trip Planner

Search our weather history database for the weather conditions in past years. The results will help you decide how hot, cold, wet, or windy it might be!

Date:

Astronomy

Mar. 02, 2013 Rise Set
Actual Time 7:13 AM CET 6:24 PM CET
Civil Twilight 6:43 AM CET 6:54 PM CET
Nautical Twilight 6:09 AM CET 7:28 PM CET
Astronomical Twilight 5:34 AM CET 8:03 PM CET
Moon No Moon Rise 9:12 AM CET (3/2)
Length of Visible Light 12h 11m
Length of Day
11h 11m
Waning Gibbous, 76% of the Moon is Illuminated
Mar 2
Waning Gibbous
Mar 4
Last Quarter
Mar 11
New
Mar 19
First Quarter
Mar 27
Full

Hourly Weather History & Observations

Time (CET) Temp. Windchill Dew Point Humidity Pressure Visibility Wind Dir Wind Speed Gust Speed Precip Events Conditions
12:00 AM 35.6 °F 29.2 °F 30.2 °F 81% 30.09 in - North 8.1 mph - N/A   Overcast
12:30 AM 35.6 °F 29.2 °F 30.2 °F 81% 30.09 in - North 8.1 mph - N/A   Overcast
1:00 AM 35.6 °F 29.2 °F 30.2 °F 81% 30.09 in - North 8.1 mph - N/A   Overcast
1:30 AM 35.6 °F 29.9 °F 30.2 °F 81% 30.09 in 2.8 mi North 6.9 mph - N/A   Overcast
2:00 AM 35.6 °F 28.6 °F 30.2 °F 81% 30.09 in - North 9.2 mph - N/A   Overcast
2:30 AM 35.6 °F 29.2 °F 30.2 °F 81% 30.09 in 2.8 mi North 8.1 mph - N/A   Overcast
3:00 AM 35.6 °F 29.2 °F 30.2 °F 81% 30.09 in - North 8.1 mph - N/A   Overcast
3:30 AM 37.4 °F 32.1 °F 30.2 °F 75% 30.09 in 2.8 mi North 6.9 mph - N/A   Overcast
4:00 AM 35.6 °F 30.7 °F 30.2 °F 81% 30.09 in - NNW 5.8 mph - N/A   Overcast
4:30 AM 35.6 °F 28.6 °F 30.2 °F 81% 30.12 in - North 9.2 mph - N/A   Overcast
5:00 AM 35.6 °F 29.2 °F 32.0 °F 87% 30.12 in - North 8.1 mph - N/A   Overcast
5:30 AM 35.6 °F 29.9 °F 32.0 °F 87% 30.12 in 2.5 mi North 6.9 mph - N/A   Overcast
6:00 AM 35.6 °F 31.7 °F 30.2 °F 81% 30.12 in 2.5 mi NNW 4.6 mph - N/A   Overcast
6:30 AM 35.6 °F 30.7 °F 32.0 °F 87% 30.12 in 2.5 mi NNW 5.8 mph - N/A   Overcast
7:00 AM 35.6 °F 30.7 °F 32.0 °F 87% 30.12 in 2.5 mi North 5.8 mph - N/A   Overcast
7:30 AM 35.6 °F 29.2 °F 32.0 °F 87% 30.12 in 2.5 mi NNW 8.1 mph - N/A   Overcast
8:00 AM 35.6 °F 29.9 °F 30.2 °F 81% 30.12 in 2.5 mi NNW 6.9 mph - N/A   Overcast
8:30 AM 37.4 °F 32.8 °F 30.2 °F 75% 30.12 in 2.8 mi NNW 5.8 mph - N/A   Overcast
9:00 AM 37.4 °F 32.8 °F 30.2 °F 75% 30.12 in 3.1 mi NNW 5.8 mph - N/A   Overcast
9:30 AM 37.4 °F 32.8 °F 30.2 °F 75% 30.12 in 4.3 mi NNW 5.8 mph - N/A   Overcast
10:00 AM 39.2 °F 35.0 °F 30.2 °F 70% 30.12 in 5.0 mi North 5.8 mph - N/A   Overcast
10:30 AM 39.2 °F 35.0 °F 30.2 °F 70% 30.12 in 5.0 mi North 5.8 mph - N/A   Mostly Cloudy
11:00 AM 39.2 °F 35.0 °F 30.2 °F 70% 30.12 in 5.0 mi NNE 5.8 mph - N/A   Mostly Cloudy
11:30 AM 39.2 °F 33.6 °F 28.4 °F 65% 30.12 in 5.0 mi North 8.1 mph - N/A   Mostly Cloudy
12:00 PM 39.2 °F 33.6 °F 28.4 °F 65% 30.15 in 5.0 mi North 8.1 mph - N/A   Mostly Cloudy
12:30 PM 39.2 °F 35.0 °F 28.4 °F 65% 30.12 in 5.0 mi North 5.8 mph - N/A   Mostly Cloudy
1:00 PM 39.2 °F 33.6 °F 28.4 °F 65% 30.12 in 5.6 mi North 8.1 mph - N/A   Mostly Cloudy
1:30 PM 41.0 °F 37.1 °F 28.4 °F 61% 30.12 in 5.6 mi North 5.8 mph - N/A   Mostly Cloudy
2:00 PM 41.0 °F 36.4 °F 30.2 °F 65% 30.12 in 5.6 mi North 6.9 mph - N/A   Mostly Cloudy
2:30 PM 41.0 °F 35.2 °F 28.4 °F 61% 30.12 in 5.6 mi North 9.2 mph - N/A   Mostly Cloudy
3:00 PM 41.0 °F 36.4 °F 28.4 °F 61% 30.12 in 6.2 mi North 6.9 mph - N/A   Mostly Cloudy
3:30 PM 41.0 °F 36.4 °F 30.2 °F 65% 30.12 in 6.2 mi North 6.9 mph - N/A   Mostly Cloudy
4:00 PM 41.0 °F 37.1 °F 28.4 °F 61% 30.12 in 6.2 mi North 5.8 mph - N/A   Mostly Cloudy
4:30 PM 41.0 °F 36.4 °F 28.4 °F 61% 30.12 in 6.2 mi NNW 6.9 mph - N/A   Mostly Cloudy
5:00 PM 41.0 °F 37.1 °F 28.4 °F 61% 30.12 in 6.2 mi NNW 5.8 mph - N/A   Mostly Cloudy
5:30 PM 41.0 °F 36.4 °F 28.4 °F 61% 30.12 in 6.2 mi North 6.9 mph - N/A   Mostly Cloudy
6:00 PM 41.0 °F 37.1 °F 28.4 °F 61% 30.12 in 6.2 mi NNW 5.8 mph - N/A   Mostly Cloudy
6:30 PM 39.2 °F 33.6 °F 28.4 °F 65% 30.12 in 6.2 mi NNE 8.1 mph - N/A   Mostly Cloudy
7:00 PM 39.2 °F 34.2 °F 28.4 °F 65% 30.15 in 5.6 mi NNE 6.9 mph - N/A   Mostly Cloudy
7:30 PM 39.2 °F 33.6 °F 28.4 °F 65% 30.15 in 5.0 mi NNE 8.1 mph - N/A   Overcast
8:00 PM 37.4 °F 31.4 °F 28.4 °F 70% 30.15 in 5.0 mi NNE 8.1 mph - N/A   Mostly Cloudy
8:30 PM 37.4 °F 30.8 °F 28.4 °F 70% 30.15 in 5.0 mi North 9.2 mph - N/A   Overcast
9:00 PM 37.4 °F 30.3 °F 28.4 °F 70% 30.15 in 5.0 mi NNW 10.4 mph - N/A   Scattered Clouds
9:30 PM 37.4 °F 31.4 °F 28.4 °F 70% 30.15 in 4.3 mi NNW 8.1 mph - N/A   Scattered Clouds
10:00 PM 37.4 °F 31.4 °F 28.4 °F 70% 30.15 in 5.0 mi NNW 8.1 mph - N/A   Mostly Cloudy
10:30 PM 35.6 °F 30.7 °F 28.4 °F 75% 30.15 in 4.3 mi North 5.8 mph - N/A   Partly Cloudy
11:00 PM 33.8 °F 30.8 °F 26.6 °F 75% 30.15 in 4.3 mi NNE 3.5 mph - N/A   Partly Cloudy
11:30 PM 33.8 °F 30.8 °F 26.6 °F 75% 30.15 in 3.7 mi North 3.5 mph - N/A   Partly Cloudy